Theta_e
301 301 302 302 303 303 303 303 304 304 304 300 298 297 290 288 291 301 304 305 302 289 280 283 285 286 285 291 290 291 290 289 290 290 290 289 290 287 286 286 286 285 286 288 287 287 284 288 287 289 290 291 293 294 296 297 296 293 290 291 292 302 279 280 280 280 283 286 289 289 292 293 288 289 287 286 284 281 282 277 279 280 280 279 276 275 279
301 301 302 302 302 303 303 304 304 304 304 301 299 290 288 289 292 298 304 304 299 291 283 280 278 280 287 287 288 291 290 290 288 289 288 288 288 287 286 287 288 287 288 288 287 292 283 289 288 287 291 291 296 295 293 295 294 294 294 290 293 286 284 281 278 275 278 279 283 284 286 289 284 285 285 287 286 285 282 282 280 279 281 278 279 273 279
301 302 302 302 303 303 303 304 304 305 305 305 299 291 290 290 293 295 296 298 299 291 284 282 278 281 283 284 284 287 288 291 290 290 289 290 288 287 285 287 288 288 289 290 291 293 289 287 291 290 291 292 296 296 298 299 298 303 303 304 296 286 284 284 277 272 271 271 271 273 275 282 284 287 287 288 286 284 284 282 279 278 280 280 276 274 284
301 302 302 302 303 303 304 304 304 305 305 304 299 294 293 289 285 287 289 289 290 289 289 285 284 281 284 279 283 287 283 288 290 290 289 290 290 288 288 287 289 287 287 285 287 287 293 289 288 288 287 289 295 295 297 303 302 307 307 301 295 284 286 283 280 279 278 277 276 280 285 283 282 285 285 286 285 286 284 280 277 278 278 278 281 286 290
301 302 302 302 303 303 303 304 305 304 304 303 299 294 292 287 284 280 283 286 285 284 284 287 286 284 284 279 285 282 284 286 288 291 286 291 289 288 288 287 284 284 285 282 283 286 288 290 288 288 288 289 294 294 296 297 305 306 303 301 288 284 284 286 286 285 282 284 284 286 288 283 283 283 284 286 287 286 281 279 281 281 284 279 285 292 292
301 302 302 303 303 303 304 304 305 303 303 304 298 290 287 284 284 285 287 284 281 280 281 286 285 287 287 283 286 284 283 283 281 287 290 290 289 285 285 285 286 285 284 285 281 282 284 286 284 288 288 288 293 293 296 295 301 302 297 298 290 284 281 285 285 284 286 287 287 287 286 285 284 284 284 285 288 287 283 283 282 281 276 280 290 294 292
301 302 302 303 303 303 304 304 305 303 302 302 295 289 288 286 286 288 290 284 282 282 287 287 285 284 285 283 285 282 283 282 286 286 286 287 287 286 279 282 284 285 284 283 281 281 279 280 284 286 285 286 286 287 290 294 295 297 295 294 291 287 284 288 286 283 285 287 287 288 285 284 283 283 284 286 288 289 289 287 286 284 284 290 294 291 286
301 302 302 303 303 304 304 305 305 303 302 300 292 290 288 287 285 288 286 284 284 286 283 283 282 282 286 282 284 286 284 283 286 288 286 280 285 288 283 284 285 285 283 282 280 283 284 284 280 285 285 284 286 284 289 289 291 295 294 295 294 289 283 290 286 282 283 286 288 288 286 283 282 283 284 285 286 290 290 291 291 292 291 291 290 287 286
301 302 303 303 303 304 304 305 305 303 301 296 291 291 290 290 288 287 285 282 282 286 281 282 280 277 280 280 284 288 287 285 287 286 290 287 286 287 284 285 285 284 283 282 284 286 286 286 286 288 287 280 288 284 286 291 287 290 292 293 291 289 283 288 284 282 280 285 286 287 286 284 282 282 283 284 285 285 286 286 288 288 288 289 289 286 285
301 302 302 303 303 304 304 305 305 304 302 293 288 291 292 291 293 287 282 280 285 281 280 279 278 277 280 282 283 286 287 287 287 280 286 290 290 289 288 286 284 280 282 282 284 286 286 287 288 289 291 290 288 288 288 289 288 288 291 291 287 286 285 283 284 283 281 285 286 285 285 285 283 280 283 285 286 287 288 288 289 290 292 288 287 287 289
301 301 302 303 303 304 304 305 305 305 300 291 287 291 291 291 292 286 283 281 278 279 279 279 279 284 283 284 285 286 284 284 285 282 281 287 288 289 288 287 284 280 280 286 289 288 288 288 288 289 289 292 290 289 289 290 291 290 291 287 288 289 288 284 286 282 281 283 283 283 283 279 279 286 290 288 285 287 286 285 287 290 291 286 289 289 291
301 302 302 303 303 304 304 305 305 306 303 298 294 291 292 290 287 282 277 278 280 279 278 280 281 282 282 283 284 284 283 283 284 287 284 285 287 287 286 285 284 281 286 290 289 289 289 290 289 288 289 290 291 292 291 290 291 293 294 291 287 287 286 284 285 283 282 283 283 282 278 278 285 291 293 292 291 290 288 289 290 290 290 290 289 289 289
301 302 302 303 303 304 304 305 305 306 305 299 296 294 294 294 291 282 280 280 278 280 277 281 282 283 283 283 282 283 284 284 284 286 286 286 285 285 286 286 284 287 291 289 289 287 286 285 284 285 286 287 288 290 291 290 288 290 291 292 291 286 286 282 282 282 283 281 278 275 276 284 289 291 292 293 292 290 289 287 289 290 290 289 288 288 289
301 301 302 302 303 304 304 305 305 306 305 300 295 293 291 292 288 283 278 278 280 279 280 280 279 281 281 282 282 283 282 283 283 284 284 285 284 285 286 287 288 290 289 289 285 284 281 278 280 281 282 282 284 284 287 290 286 288 288 289 292 290 285 284 282 282 279 279 279 279 285 285 287 286 286 287 285 286 285 283 285 290 292 290 288 289 290
300 301 302 302 303 303 304 305 305 306 306 302 292 290 291 291 287 286 283 282 279 280 278 278 280 281 282 282 282 280 279 279 281 280 283 285 285 286 288 288 288 289 289 287 283 280 281 278 278 277 279 275 273 277 282 283 288 287 287 288 288 288 287 283 282 279 281 280 278 280 280 278 282 287 291 291 290 289 289 286 284 292 292 293 290 288 289
300 301 301 302 303 303 304 305 305 305 306 303 292 292 292 293 288 287 281 279 278 276 280 283 283 282 281 281 282 282 279 276 278 277 279 280 282 285 287 287 289 289 287 284 280 277 277 279 274 271 272 273 279 279 279 282 282 286 285 288 289 288 287 285 283 279 279 276 276 278 276 279 283 285 288 289 288 290 289 285 282 289 293 293 291 289 289
300 301 301 302 303 303 304 304 305 305 306 305 293 291 295 294 292 283 281 280 281 278 278 283 283 281 277 278 279 280 281 278 280 277 275 278 281 282 285 288 288 289 286 279 280 276 276 275 277 276 279 280 278 276 281 279 276 277 284 284 284 283 280 281 281 276 275 274 272 273 276 277 284 286 288 288 289 291 285 278 279 288 293 293 292 290 290
300 300 301 302 302 303 304 305 305 305 305 305 293 291 292 294 289 286 284 281 278 279 283 283 284 279 281 280 279 282 280 279 278 278 278 278 279 279 283 285 286 287 288 280 278 275 274 272 276 273 274 282 282 278 273 278 275 275 279 278 278 274 276 278 274 272 274 277 275 274 276 282 286 287 288 289 290 288 277 273 280 290 291 292 292 291 291
300 300 301 301 302 303 304 304 305 305 306 304 292 290 292 293 293 288 284 281 280 280 281 283 286 284 286 286 284 283 284 283 281 277 276 275 281 283 284 284 286 281 285 277 279 277 274 275 277 277 275 278 281 276 280 274 275 279 278 276 276 274 272 274 276 276 273 273 273 274 275 282 286 288 288 290 289 281 278 283 288 291 290 292 292 290 291
300 300 301 301 302 303 304 304 305 305 306 306 294 289 293 292 294 290 285 282 277 281 282 286 287 286 286 286 283 281 281 281 278 279 277 276 281 282 278 277 282 283 281 281 277 279 274 275 276 277 273 276 279 280 275 277 280 278 278 279 274 275 272 273 273 274 273 270 270 272 273 281 287 286 288 291 285 284 288 289 290 292 291 291 291 290 289
299 300 301 301 302 303 304 304 305 305 306 306 297 289 292 293 295 293 287 285 282 280 282 285 287 287 286 286 287 286 284 283 283 281 281 279 281 277 272 273 278 279 278 277 275 277 277 275 277 276 280 277 277 279 275 271 277 282 282 279 279 281 274 274 274 278 270 270 271 273 280 283 288 287 283 286 288 291 290 290 289 292 291 290 289 289 289
299 300 300 301 302 303 303 304 305 305 306 306 299 290 290 293 293 295 292 288 281 281 286 287 287 287 287 289 289 286 289 288 289 288 285 280 281 281 280 279 282 281 283 280 278 278 280 277 279 275 274 276 281 274 276 269 272 279 281 280 275 284 279 278 277 281 273 275 279 284 287 287 289 289 288 289 291 292 292 290 290 289 288 290 288 288 289
299 299 300 301 302 303 303 304 304 304 305 305 297 289 290 292 293 294 286 286 285 287 286 284 284 287 291 292 290 288 287 288 289 287 283 283 281 280 281 282 281 284 284 283 283 284 282 280 276 279 277 277 275 277 280 276 274 280 278 285 283 288 287 286 285 282 287 287 288 289 289 290 290 291 292 291 291 292 292 290 288 288 288 289 288 288 288
299 299 300 301 301 302 303 304 304 304 305 305 298 289 290 292 293 290 289 286 282 283 284 285 283 281 281 287 290 289 289 289 291 289 287 286 279 277 278 281 283 281 279 283 281 281 278 276 279 280 277 279 280 275 273 275 275 279 278 279 282 285 285 284 282 284 282 278 287 287 288 290 290 291 292 293 293 292 292 291 290 289 289 289 289 289 289
299 299 300 300 301 302 303 304 304 304 305 305 298 294 292 290 291 290 287 285 282 276 278 277 278 287 288 288 289 289 290 290 292 289 287 285 284 281 282 286 287 284 284 284 280 281 276 276 278 275 275 281 280 275 278 277 278 279 274 278 280 282 286 283 281 282 280 281 285 288 290 291 292 291 290 290 292 292 293 293 292 291 291 290 289 290 289
299 299 300 300 301 302 303 303 303 303 304 304 299 289 289 290 291 290 290 288 282 280 278 277 283 288 287 289 290 290 290 290 289 290 289 289 287 286 286 287 284 283 283 282 281 278 274 274 274 274 277 277 280 276 277 279 280 281 279 278 281 281 283 275 281 281 284 287 288 289 289 290 290 291 291 291 292 292 293 293 293 292 291 290 290 291 289
299 299 300 300 301 302 302 303 303 303 304 302 294 290 290 289 291 293 291 287 282 280 278 280 280 285 289 287 291 289 290 290 289 289 289 288 286 286 285 283 281 281 281 280 279 277 276 276 275 279 278 279 278 279 280 278 278 274 275 280 281 281 280 281 282 279 278 281 284 288 283 282 287 290 291 292 293 293 292 293 292 292 291 290 289 289 290
298 299 300 300 301 302 302 303 303 303 303 301 295 292 289 291 292 291 288 288 286 280 279 276 281 285 286 289 290 287 292 291 289 289 288 288 288 287 286 283 281 282 279 278 281 280 275 277 279 274 274 278 277 277 278 278 278 277 278 280 280 280 281 277 273 277 275 281 287 287 288 287 287 288 289 290 291 292 291 291 291 290 290 289 288 286 286
298 299 300 300 301 302 302 303 303 303 302 298 288 289 290 291 290 295 295 292 286 282 279 281 281 281 281 285 290 288 288 289 289 288 288 288 288 286 285 285 282 278 279 277 275 275 274 276 275 277 278 280 278 276 275 273 268 272 277 280 279 281 281 282 281 281 282 283 284 285 285 285 286 286 287 288 289 289 288 288 288 288 288 287 287 286 284
299 299 300 301 301 302 302 303 303 303 300 287 287 283 282 289 288 294 298 295 286 283 281 277 277 281 283 286 288 287 288 289 288 289 288 287 287 286 285 285 285 283 281 279 278 276 277 276 273 277 281 282 277 272 270 273 272 277 280 279 281 282 283 283 283 283 283 284 283 283 284 283 283 283 284 285 288 288 287 286 286 285 284 285 284 282 283
299 300 300 301 302 302 302 303 303 303 296 287 285 281 278 280 288 292 299 294 289 285 278 278 279 279 282 287 286 288 286 289 287 285 285 285 284 284 285 283 283 284 280 278 278 278 275 275 275 278 280 285 276 270 275 272 272 278 280 279 280 281 283 283 284 285 285 284 285 284 284 283 283 283 284 283 283 285 285 285 287 288 285 284 283 283 282
299 300 300 301 301 302 303 303 303 302 288 286 287 286 283 286 289 293 300 298 292 286 280 278 279 278 276 280 286 288 288 287 285 283 283 286 286 284 284 285 283 283 284 277 277 276 278 275 275 279 279 282 280 270 274 273 272 277 279 279 280 281 282 284 285 286 287 288 287 285 285 284 285 283 282 283 282 281 283 282 283 284 286 283 281 281 281
299 300 300 301 301 302 303 303 304 301 292 293 298 299 299 300 301 300 299 293 291 284 279 276 275 277 277 282 285 287 288 284 283 281 284 285 284 281 282 282 281 282 289 282 278 277 278 274 274 278 280 278 272 271 274 270 277 279 279 281 280 282 282 283 284 285 287 286 286 282 280 282 282 282 282 281 281 281 283 283 281 281 281 282 281 281 281
299 300 300 301 302 302 303 303 302 301 296 290 287 289 294 301 296 302 292 290 288 283 278 278 276 276 277 281 283 285 287 283 282 279 279 285 282 280 280 280 282 279 281 280 278 277 278 279 277 274 276 275 271 271 272 276 278 279 279 280 280 280 281 282 282 281 280 280 281 283 283 281 281 281 281 281 281 281 282 280 281 282 281 281 280 280 280
299 300 300 301 302 303 302 300 290 292 288 289 289 288 288 301 300 298 295 290 283 280 278 278 274 273 277 275 272 280 284 282 280 280 279 283 283 283 281 278 277 278 280 279 273 273 273 278 278 274 274 274 270 270 269 276 279 279 280 280 280 280 281 282 281 280 279 280 281 280 280 282 283 281 281 281 281 280 281 281 281 281 281 281 280 280 280
299 300 301 302 302 300 291 295 290 288 286 287 289 298 303 302 300 291 291 291 288 278 274 277 274 274 272 271 274 281 286 281 280 278 281 278 280 282 277 276 275 278 278 275 275 273 274 281 276 273 270 272 273 273 277 277 278 279 279 280 280 282 282 282 281 279 279 280 281 281 281 281 282 281 280 280 280 280 279 280 281 281 280 280 280 280 280
300 300 301 300 292 290 285 285 289 290 289 291 295 302 303 300 295 292 290 291 292 288 281 274 276 278 275 274 273 278 280 278 279 276 279 278 277 276 275 273 274 279 273 273 273 274 278 281 273 269 269 270 274 278 278 278 279 280 279 278 281 280 279 280 281 281 281 281 283 281 280 280 280 280 281 281 280 279 280 280 280 281 280 280 280 280 280
300 300 290 289 284 281 284 284 290 293 301 300 301 292 288 288 286 281 282 281 285 288 279 279 276 280 278 277 277 283 279 276 278 278 277 276 277 277 275 276 277 277 271 271 275 280 273 272 269 271 274 276 277 278 279 279 280 279 280 280 280 280 280 280 282 282 281 280 281 281 281 281 280 280 280 280 280 280 280 280 280 280 281 281 280 280 279
294 288 285 282 281 281 282 288 292 300 294 294 288 285 282 279 279 279 278 278 279 280 278 277 278 278 277 278 280 282 283 277 272 274 274 279 276 276 275 273 276 272 270 272 275 277 272 270 266 266 270 275 278 280 279 279 280 281 280 281 281 280 281 281 282 284 283 283 283 282 282 282 280 281 279 280 280 280 279 279 280 280 280 280 279 279 279
288 288 284 281 282 285 288 291 297 294 290 286 279 279 279 279 278 278 276 278 277 277 275 277 280 277 278 278 279 280 284 281 274 275 274 276 281 275 275 273 275 271 268 266 273 275 269 269 266 266 271 273 278 279 278 279 280 281 280 280 281 280 281 282 282 281 281 281 282 282 281 282 281 281 282 282 281 281 281 281 279 279 279 280 279 280 281
285 283 284 283 286 285 287 290 287 282 281 279 278 277 276 278 278 277 274 272 276 278 279 279 279 281 281 279 278 277 283 283 279 277 274 274 279 276 271 273 274 269 267 270 274 270 266 266 265 265 270 273 276 279 279 279 280 282 281 280 282 280 281 281 282 283 284 283 283 283 284 285 283 280 281 281 281 281 281 281 280 280 279 280 280 280 280
287 286 287 290 292 291 289 285 280 281 278 278 275 274 274 276 277 277 275 275 275 275 282 279 279 279 282 283 283 281 281 283 277 274 275 276 279 274 273 272 271 267 268 272 272 266 266 268 266 269 269 273 275 277 278 278 281 280 282 280 280 281 281 282 283 283 284 284 283 285 286 285 282 281 281 281 281 281 281 281 281 280 280 280 281 280 280
298 297 293 287 283 281 279 280 280 277 275 274 271 273 273 274 276 274 276 274 275 278 280 283 282 282 284 282 282 283 281 284 283 277 273 275 277 273 270 269 270 269 273 271 268 264 266 265 266 268 273 278 277 278 278 278 279 280 280 280 279 280 281 281 282 283 284 286 286 285 282 281 281 280 281 281 281 281 281 281 281 281 280 280 280 280 280
294 292 285 278 281 280 280 277 280 278 274 271 271 270 271 271 273 272 274 277 277 279 281 281 281 280 279 282 281 280 279 282 281 276 276 275 274 272 270 269 272 273 273 267 266 268 268 264 265 273 277 278 280 279 278 281 281 280 282 281 280 280 281 281 281 283 282 281 281 281 280 281 281 281 281 281 282 282 282 281 280 281 280 280 280 280 280
284 280 276 276 274 277 278 272 275 273 271 271 273 270 269 271 271 268 275 277 280 283 280 279 280 280 280 281 279 279 280 278 278 276 275 273 270 271 270 271 270 266 268 267 263 264 268 272 276 277 278 280 281 280 279 278 278 280 282 281 281 281 281 281 281 280 281 282 282 282 282 282 282 282 281 281 281 281 282 283 281 281 280 280 280 280 279
278 276 273 274 273 274 273 270 270 272 272 273 272 273 274 275 276 277 277 277 279 280 282 281 281 281 279 279 279 279 275 274 274 276 275 270 270 271 274 273 268 266 265 259 263 267 266 272 271 276 278 278 278 278 278 278 279 280 281 283 283 281 281 281 281 282 283 283 282 283 282 281 282 282 282 280 280 281 281 281 281 282 281 280 280 281 280
282 279 274 273 272 273 275 272 271 272 277 277 276 277 278 279 278 279 281 279 281 282 281 280 280 280 279 279 278 279 275 274 274 276 272 272 272 274 274 273 269 263 264 264 262 262 264 272 273 275 278 278 278 277 277 279 280 280 281 281 281 282 282 281 281 283 283 282 281 282 282 281 281 281 280 281 281 281 281 282 282 281 282 283 282 281 280
278 278 277 274 271 273 274 273 274 277 279 279 278 277 279 280 282 282 282 280 281 282 283 283 282 279 280 279 276 275 276 275 274 275 275 275 275 269 265 265 262 262 261 264 264 263 268 270 274 277 278 278 278 277 279 280 281 281 280 281 281 281 281 281 282 282 282 282 282 281 281 280 281 281 281 282 281 281 281 283 283 282 282 281 281 280 280
280 276 276 272 274 273 274 276 278 279 278 278 279 280 282 283 281 282 282 279 281 282 280 278 276 275 277 277 273 275 276 274 271 273 273 270 268 267 266 264 262 266 268 264 266 268 271 272 275 278 279 280 281 280 281 280 281 281 280 280 281 281 281 281 280 280 281 281 280 281 282 282 281 281 281 282 284 283 282 282 282 281 281 281 281 280 280
279 279 278 275 276 276 277 277 279 277 279 279 279 281 280 281 282 283 280 281 281 280 280 283 280 278 277 276 274 272 273 273 274 274 268 268 266 266 264 263 262 266 271 272 270 270 275 276 279 281 281 281 281 282 281 281 279 280 280 280 280 280 281 281 281 281 281 281 281 282 281 282 282 281 282 283 283 281 282 282 281 281 281 281 281 280 281
280 279 278 274 275 275 276 275 277 275 276 279 279 279 278 281 280 283 282 280 280 278 275 276 277 274 274 271 269 269 274 274 272 271 270 269 270 268 267 268 267 268 272 275 276 277 279 278 278 280 282 283 283 283 282 281 280 280 280 280 280 280 280 280 281 280 280 281 281 282 282 283 282 282 282 282 282 282 283 282 281 282 282 281 281 281 281
276 277 280 279 279 277 278 278 279 278 279 279 280 281 280 283 280 282 281 280 278 278 277 275 275 273 270 270 270 272 277 271 270 271 270 271 271 269 265 265 269 272 275 278 281 281 281 281 282 282 283 282 282 280 280 281 281 280 281 281 281 281 281 281 281 281 281 281 280 281 282 282 282 281 281 282 282 283 282 282 283 281 282 282 282 282 282
Wind_Speed
16 17 17 18 19 20 19 19 19 15 15 5 5 3 1 4 2 2 3 3 0 3 1 1 1 1 2 3 2 1 2 2 2 1 1 1 1 1 1 3 1 3 3 1 1 0 1 0 1 0 1 1 1 6 4 1 4 4 1 1 1 4 2 2 2 5 6 5 5 1 1 1 1 3 3 1 2 5 7 4 6 7 2 1 1 1 2
16 17 18 18 19 20 20 20 18 16 12 6 5 1 2 2 2 3 1 1 1 2 1 1 1 2 3 2 3 2 2 0 2 1 2 0 3 0 1 4 1 2 1 0 1 1 0 2 3 1 1 2 1 6 4 5 1 2 4 3 2 1 2 4 2 2 6 5 6 3 3 5 3 1 3 2 1 4 2 5 1 4 6 4 7 4 2
16 17 18 19 20 20 20 20 18 17 14 9 3 1 1 3 0 1 1 5 0 1 2 1 0 1 1 2 4 6 2 2 2 1 2 1 0 1 2 3 2 2 0 0 1 2 1 0 2 0 1 1 2 5 5 1 3 1 2 3 2 1 1 3 3 4 4 2 1 3 1 1 4 1 5 4 3 2 2 2 1 3 1 3 3 2 4
16 17 18 19 20 20 20 20 17 16 16 3 4 3 2 1 3 3 1 4 3 2 0 2 2 0 0 2 2 0 3 3 3 3 2 2 1 2 2 3 1 1 2 2 3 4 3 2 0 4 4 3 2 2 6 5 3 6 11 6 5 3 1 2 4 7 8 6 2 2 0 3 3 7 5 9 3 4 2 4 5 6 4 2 2 4 8
16 17 18 19 19 20 20 20 17 16 13 9 5 1 1 1 4 1 2 2 3 1 2 1 1 1 1 0 0 3 1 3 3 1 0 2 3 1 1 2 3 2 2 1 0 2 2 5 4 3 2 3 3 7 1 4 8 5 4 5 5 4 5 2 7 6 1 1 4 3 1 2 0 5 8 7 9 6 1 2 2 4 11 0 1 5 9
16 17 18 18 20 20 19 20 16 16 6 12 0 1 2 2 1 2 1 3 1 1 2 1 1 1 0 0 1 1 3 3 2 5 1 3 2 2 1 5 3 1 2 0 0 4 2 3 2 4 2 2 4 4 6 6 6 5 2 3 4 4 3 0 3 3 2 3 4 3 3 4 4 4 6 10 9 9 4 1 2 3 2 7 7 8 8
16 17 18 19 20 20 19 18 15 13 2 7 1 1 1 2 1 1 1 1 1 2 0 2 3 3 1 0 1 1 2 3 1 1 4 4 3 3 1 4 8 6 4 1 0 2 1 2 3 3 3 0 2 2 3 3 7 6 3 4 2 5 3 0 1 2 5 6 6 5 5 3 4 8 7 7 8 9 7 5 2 1 3 6 12 10 8
16 17 18 19 20 20 19 18 16 10 1 1 1 0 1 1 1 1 3 5 3 1 1 1 2 2 3 1 0 0 1 3 4 1 1 1 3 1 2 5 7 4 5 2 2 0 1 1 1 2 4 6 3 1 1 3 4 5 3 1 2 3 1 3 1 3 4 6 6 5 5 4 5 7 10 10 7 8 9 6 7 9 9 11 11 10 6
15 17 18 20 20 20 20 19 16 9 6 1 1 0 1 1 1 1 5 3 3 1 2 1 2 1 3 3 2 0 1 1 1 3 1 2 1 3 4 5 6 1 2 2 1 0 1 1 3 3 2 3 1 3 2 4 4 6 2 2 2 5 1 1 1 3 2 3 6 4 2 4 7 7 12 10 8 7 5 4 4 3 7 10 12 6 3
16 18 19 19 20 20 20 19 17 13 0 2 0 1 0 1 0 3 5 3 3 1 0 1 2 1 1 1 2 1 2 2 2 1 2 1 2 1 3 4 1 4 4 3 3 2 2 6 8 6 9 5 4 1 4 3 2 2 0 0 3 2 6 3 2 4 1 2 3 5 2 3 1 5 5 7 3 0 0 2 4 4 3 10 10 5 6
16 17 18 19 20 20 21 19 17 13 4 2 1 0 0 1 1 2 5 5 2 2 1 3 4 0 0 2 1 1 1 3 2 2 1 2 1 1 0 1 3 4 2 3 1 1 6 7 6 3 2 2 3 3 3 3 3 4 2 3 2 2 6 3 1 3 1 2 4 2 3 3 2 2 2 3 3 2 6 4 4 6 6 2 5 8 10
15 17 18 19 20 20 19 19 17 13 5 0 1 1 2 3 5 5 4 5 0 1 3 0 0 2 2 3 2 1 2 3 3 0 1 1 3 3 2 1 1 4 3 3 5 6 3 1 4 3 2 3 4 7 11 9 7 2 2 3 4 4 4 3 1 4 2 0 1 2 3 0 0 1 2 2 6 8 11 8 9 8 11 12 12 10 9
16 17 18 19 20 20 19 19 18 14 7 2 1 1 0 1 2 3 6 7 1 1 1 0 0 1 2 3 2 2 3 4 3 4 1 1 2 2 1 0 1 4 5 12 9 4 2 1 3 4 4 3 2 8 13 12 12 5 3 2 8 6 6 3 3 2 2 1 1 2 1 1 0 1 1 1 1 1 1 9 9 8 5 11 11 11 11
16 17 19 20 20 20 19 18 17 15 9 4 1 1 1 1 2 2 2 6 1 1 1 2 2 2 2 2 1 5 3 4 4 1 0 2 2 3 3 1 3 4 4 1 2 1 2 4 4 2 1 4 2 3 2 2 5 5 6 4 1 9 5 4 3 1 3 2 2 2 0 2 1 2 3 3 2 3 1 4 3 4 2 2 13 11 11
16 17 19 19 20 20 20 19 18 16 13 2 3 1 1 0 2 3 2 7 4 0 1 0 2 3 0 1 2 5 3 3 5 2 2 1 1 2 2 4 4 6 1 1 1 3 1 3 2 2 1 3 1 2 1 1 4 3 4 3 5 1 7 3 5 1 3 4 3 2 1 2 2 2 1 0 2 1 3 1 3 3 6 4 9 12 10
16 17 19 19 20 20 20 19 18 16 14 6 3 1 3 1 3 5 3 6 7 3 1 2 2 1 0 0 0 2 1 2 2 3 6 4 2 8 4 3 5 2 2 4 2 3 1 3 2 3 1 3 1 2 1 1 1 4 4 7 9 8 8 5 5 3 3 2 4 1 2 0 2 3 4 3 2 3 2 2 3 1 5 6 7 10 8
16 17 18 19 19 20 19 19 17 16 14 9 1 1 4 0 1 3 4 4 6 1 3 1 3 3 2 1 3 2 0 1 1 2 3 4 3 3 11 7 3 2 3 3 5 3 4 5 2 3 0 0 0 1 0 2 1 4 9 7 11 9 5 4 5 3 1 4 3 2 0 1 2 4 5 6 3 2 1 2 2 3 6 7 7 10 9
15 17 18 19 19 19 19 18 17 17 14 11 1 3 2 2 2 3 6 5 6 2 1 5 1 2 3 1 1 1 1 2 3 1 1 3 2 3 4 5 9 4 2 3 1 5 3 2 3 2 1 2 0 1 0 0 2 1 3 2 3 5 4 6 3 3 4 5 1 2 1 1 2 6 9 9 3 1 3 2 3 5 7 8 7 9 7
15 17 18 18 19 19 19 19 18 18 16 11 1 2 3 4 3 5 8 5 5 3 4 2 0 2 0 1 1 1 0 1 0 1 5 5 1 2 2 3 0 4 7 2 5 3 2 0 1 1 2 2 2 1 0 3 2 3 3 3 5 5 2 1 3 6 2 1 4 1 1 1 4 9 9 6 1 1 2 1 2 9 9 8 9 9 5
15 16 17 18 19 18 19 18 18 18 17 16 4 4 1 1 4 2 5 6 3 4 1 1 1 1 1 2 4 5 2 4 1 2 1 1 4 4 1 3 3 2 5 3 4 0 4 1 1 1 3 1 1 3 4 1 1 2 1 1 3 2 2 1 2 1 1 3 3 1 1 1 7 13 5 2 1 1 0 3 4 7 10 9 6 5 5
15 16 17 18 18 18 18 18 18 18 17 15 5 2 4 5 5 5 5 8 6 7 3 2 0 0 1 1 1 4 4 3 2 2 1 4 2 2 3 1 4 1 2 2 3 1 1 1 2 1 0 2 2 2 3 1 2 2 3 1 4 1 2 0 1 1 2 2 2 0 2 7 9 4 0 3 2 2 1 1 8 5 7 7 7 5 6
14 15 16 17 17 17 17 17 17 17 17 17 7 5 4 3 2 3 1 5 5 3 3 0 0 1 3 2 2 4 1 2 2 3 1 3 2 3 2 1 1 1 0 2 2 2 3 1 0 4 4 3 3 4 3 4 3 5 3 4 5 8 3 1 4 2 2 2 2 3 3 5 6 3 3 4 6 6 6 6 5 8 5 4 8 8 7
14 15 15 16 16 16 16 17 17 16 16 15 8 5 3 4 6 3 1 6 2 1 3 4 1 2 2 1 2 4 3 1 2 1 4 1 2 1 1 1 1 1 0 0 1 5 2 4 2 2 2 2 3 3 7 5 2 3 5 5 6 1 2 2 4 7 8 9 4 1 4 6 7 7 7 9 9 10 9 9 10 8 7 5 7 9 9
13 14 15 15 16 16 16 16 17 16 15 13 5 3 2 1 3 3 6 6 4 3 4 6 5 3 1 3 4 4 2 2 1 1 1 2 2 3 2 1 1 1 1 1 1 2 3 3 2 2 4 1 2 5 4 6 2 0 2 3 2 2 1 2 5 1 2 4 6 6 5 5 8 10 10 10 10 9 10 12 10 10 9 10 8 8 9
14 14 15 15 16 16 16 16 16 16 15 13 5 3 3 4 3 3 3 1 2 3 2 2 3 3 3 4 3 1 2 1 2 2 4 3 3 3 1 0 0 1 1 0 1 6 4 4 1 3 6 1 2 2 1 5 2 1 4 2 2 2 1 7 4 4 4 3 1 4 5 6 6 5 9 11 11 12 11 10 9 10 10 10 8 8 10
14 14 14 15 15 16 16 15 15 15 14 13 8 4 5 1 3 1 6 5 3 4 4 1 1 3 3 4 4 3 1 4 3 9 8 2 1 1 4 1 2 3 3 2 4 6 4 5 3 1 5 1 1 3 3 0 4 0 6 1 1 2 2 1 1 5 6 6 4 5 7 9 7 7 6 6 7 10 10 10 11 11 13 12 11 9 7
13 14 14 15 15 16 15 15 14 13 13 10 5 5 4 1 3 4 1 2 6 3 4 2 3 6 4 3 2 3 3 5 7 8 9 9 7 5 6 4 3 4 6 5 3 5 4 3 5 4 2 1 2 2 2 2 3 2 3 2 3 3 5 1 6 7 1 2 5 4 4 3 4 5 6 7 8 9 8 7 8 9 9 9 9 6 4
12 13 14 14 15 15 15 14 13 13 12 6 5 6 3 5 3 2 2 2 2 4 4 1 2 2 3 1 4 3 5 5 6 8 7 9 11 10 9 6 5 6 5 4 5 6 4 7 3 1 1 0 4 4 2 1 3 5 6 4 1 2 3 3 3 6 3 4 2 2 5 6 1 2 2 3 3 7 9 8 7 5 7 9 10 8 5
12 13 14 15 15 15 14 13 13 11 11 4 1 2 3 1 1 3 3 1 6 7 5 1 2 4 3 2 6 6 4 7 8 7 7 8 9 9 8 8 6 2 3 5 4 3 4 1 1 2 1 1 4 1 4 5 4 3 3 4 3 2 2 1 3 6 3 2 4 1 2 5 3 2 2 3 3 7 6 4 4 6 6 5 6 7 9
12 12 13 14 14 14 14 12 12 12 8 2 3 4 4 1 2 5 5 3 2 5 3 2 3 0 2 2 4 4 4 5 6 9 9 7 8 7 7 6 5 3 5 3 3 4 0 2 1 1 2 2 3 1 4 0 3 1 2 3 4 2 1 1 2 3 4 2 3 3 5 6 3 3 2 2 1 5 8 6 6 5 3 4 7 4 5
12 13 13 14 14 14 13 12 10 9 6 5 4 2 2 2 1 2 5 3 1 4 3 4 2 2 2 0 1 6 6 5 5 5 5 3 3 3 3 2 4 3 6 5 5 1 1 4 2 3 2 5 4 3 2 3 2 2 4 4 4 2 5 4 5 7 8 7 7 5 5 4 2 4 4 2 2 3 4 1 1 4 5 5 6 7 5
13 13 13 14 14 14 12 11 9 6 4 2 1 1 2 2 2 5 5 2 0 3 4 3 1 2 1 3 2 1 1 2 2 3 3 3 4 5 5 7 2 3 4 3 1 2 3 1 2 2 3 4 6 3 3 4 5 1 2 3 3 1 2 6 7 7 9 9 10 9 6 2 1 5 5 4 1 1 4 4 3 2 4 4 3 3 3
13 13 13 14 14 13 12 9 8 3 1 2 4 2 3 5 7 6 3 1 5 2 3 4 2 1 1 0 4 3 3 2 7 5 3 3 3 4 4 5 3 5 5 6 5 2 1 1 0 5 3 2 3 2 4 3 1 1 1 1 2 1 4 3 5 5 6 3 4 8 4 6 3 1 2 3 2 3 5 5 3 3 4 5 4 4 3
13 13 14 14 14 13 11 9 3 1 4 3 3 3 2 3 4 4 1 5 4 1 3 2 1 1 1 3 3 3 3 2 1 2 2 3 0 3 2 4 5 4 6 4 2 2 2 4 5 1 4 5 2 4 2 1 1 1 2 1 1 1 4 4 4 4 3 3 3 1 5 4 4 4 4 3 3 3 3 3 5 5 2 4 3 3 2
13 14 14 14 13 11 8 4 3 2 2 1 0 2 2 5 3 3 3 1 2 2 2 2 2 2 1 3 2 3 0 4 3 2 3 2 2 2 1 4 4 6 2 2 5 2 2 1 1 5 1 4 4 2 2 2 0 1 1 2 0 3 5 4 1 2 2 3 3 4 4 6 7 5 5 2 3 2 4 2 1 5 5 2 2 1 2
14 15 14 13 10 4 1 2 4 2 3 1 0 3 4 3 4 2 3 3 2 3 2 0 2 2 3 2 1 1 1 2 0 1 0 0 3 3 4 3 5 1 1 4 1 3 2 2 2 2 2 5 0 1 2 3 4 2 2 4 5 3 3 5 6 3 3 4 5 3 4 3 6 5 2 3 2 2 2 3 1 1 3 4 3 1 1
14 14 12 8 3 1 3 1 2 1 1 2 3 4 3 2 1 1 4 2 2 2 4 3 5 2 3 2 1 3 2 1 4 3 5 4 0 2 4 3 2 2 4 5 4 4 2 1 6 3 3 1 1 2 3 3 4 5 4 3 4 2 1 3 5 7 6 6 5 3 1 2 2 2 2 2 2 1 3 4 5 5 4 4 4 4 4
12 6 1 1 2 2 1 1 0 2 5 6 3 1 4 6 0 2 3 2 2 3 3 4 3 1 1 2 1 1 2 1 2 1 1 0 1 1 0 2 1 1 2 1 1 0 1 6 3 2 0 2 3 3 2 1 4 4 4 3 3 4 2 4 5 6 5 3 1 0 0 0 0 1 3 4 4 4 4 2 2 2 2 4 4 3 3
5 2 2 2 3 1 2 1 2 7 0 0 2 0 1 1 1 1 0 1 2 2 2 4 1 1 2 4 0 2 2 2 2 3 2 2 1 0 1 2 2 4 1 1 1 3 2 3 3 3 1 3 4 2 3 2 2 1 3 4 4 4 4 5 4 8 10 8 9 9 9 7 5 5 3 3 3 1 1 1 1 1 1 1 3 2 2
1 1 1 1 1 1 3 4 7 2 2 0 2 2 0 1 3 0 1 2 1 1 1 2 1 2 1 3 4 1 1 1 1 1 1 1 0 1 1 2 1 3 0 1 1 3 4 1 2 2 0 2 1 2 3 2 1 2 3 3 1 4 5 7 5 1 1 1 1 2 1 0 3 4 5 5 4 3 2 2 3 1 1 1 2 4 5
2 1 1 1 1 1 3 4 3 3 1 1 1 2 1 1 1 0 1 2 1 0 0 2 1 1 0 2 2 2 2 3 1 2 3 2 1 3 3 1 1 2 0 0 1 2 2 2 1 2 4 2 1 3 5 4 3 3 2 3 1 3 4 5 4 2 2 3 4 3 3 2 1 3 3 4 4 4 4 4 4 3 3 3 4 4 2
1 1 0 1 1 2 1 2 3 1 1 0 2 0 0 1 0 2 1 2 1 1 1 1 1 2 1 0 1 3 1 0 1 1 2 1 1 1 1 0 2 2 0 2 1 3 3 1 0 1 3 3 3 2 3 2 3 3 4 5 3 0 4 4 5 2 2 6 5 5 6 5 4 3 3 4 4 4 3 3 3 3 4 4 1 2 3
3 3 2 2 1 2 1 1 2 1 1 1 2 1 1 1 0 2 0 1 1 2 1 0 0 0 0 1 1 1 1 0 0 1 2 0 1 2 2 1 1 2 0 1 2 1 2 1 2 4 3 2 1 1 2 3 2 3 3 3 3 1 2 4 3 2 1 2 5 6 4 4 4 3 3 3 2 1 1 2 3 4 3 4 4 3 3
2 1 1 2 2 1 1 1 0 1 1 1 1 2 1 1 1 1 1 2 0 1 1 5 3 4 2 2 2 1 1 1 4 2 2 0 2 1 1 0 0 2 0 2 2 2 1 2 5 3 3 2 2 1 1 0 1 2 2 3 3 3 3 3 3 4 2 2 2 1 3 4 2 1 1 2 4 4 4 2 2 3 2 3 3 3 3
1 2 2 1 1 1 1 1 2 2 2 2 1 1 3 5 4 2 4 2 1 5 1 4 5 5 3 1 1 1 1 1 2 2 0 1 2 1 1 0 1 3 2 0 1 0 1 0 1 1 1 1 1 1 1 2 2 1 1 1 3 2 1 3 3 3 2 1 1 1 2 1 1 1 2 4 4 3 4 4 4 4 4 4 3 2 3
1 2 2 3 1 2 1 0 0 0 2 2 2 6 4 5 5 4 3 1 4 4 6 4 5 5 3 1 2 1 1 1 2 1 0 2 2 0 0 0 2 2 1 2 1 1 2 3 3 4 4 4 3 2 1 2 2 0 0 2 0 1 0 2 3 2 1 1 1 1 1 0 0 1 4 3 2 3 4 3 3 5 4 3 4 5 4
2 1 2 1 3 1 0 1 2 2 1 3 4 6 5 7 5 2 2 1 5 6 6 2 3 2 5 0 1 1 2 1 2 1 1 1 0 0 2 1 0 0 2 0 1 2 2 4 4 5 4 4 3 2 2 1 1 2 3 2 1 0 0 0 1 2 1 0 0 1 2 3 4 3 1 1 2 3 3 2 3 3 5 8 6 4 4
1 0 1 2 2 1 2 2 1 0 0 1 2 3 2 2 4 3 2 1 5 4 7 5 4 2 4 2 4 2 0 1 2 1 1 1 0 2 2 2 0 1 1 2 3 4 3 3 4 5 5 3 2 1 2 3 3 4 2 2 2 1 2 1 1 1 1 1 1 2 2 2 2 3 3 3 2 3 3 4 5 4 5 3 2 4 5
2 1 1 2 1 2 0 1 2 3 4 3 1 3 3 7 5 4 0 1 4 4 2 3 3 3 1 1 2 1 1 1 2 1 1 2 1 1 1 1 0 0 3 4 1 2 4 3 3 3 3 3 3 3 4 3 2 1 2 2 3 4 2 3 3 3 2 2 2 3 3 3 1 0 0 0 1 3 1 2 4 4 4 5 5 4 5
1 1 1 2 2 1 0 1 5 3 1 2 2 3 1 7 6 1 1 2 1 3 2 4 3 4 0 0 1 2 0 1 1 0 2 0 1 1 2 1 2 3 1 3 3 4 3 3 3 4 4 4 3 4 3 2 2 2 3 3 4 3 4 4 4 4 4 3 3 4 3 1 2 3 3 4 4 2 1 1 3 4 4 4 4 4 5
0 1 0 1 2 3 4 4 7 5 2 3 4 3 2 4 4 2 1 3 2 5 5 2 0 2 1 2 2 1 1 0 2 1 2 2 1 2 2 1 3 6 5 4 4 4 4 4 4 4 3 3 3 3 4 3 2 2 2 2 3 3 3 3 4 4 4 4 2 1 2 4 3 3 3 1 1 2 3 3 3 4 4 4 5 5 5
1 1 1 0 1 2 4 3 3 3 4 4 3 1 2 2 1 1 0 4 4 4 1 1 2 2 2 1 2 1 0 2 1 0 1 1 1 2 2 4 3 6 5 2 3 3 4 3 4 4 5 4 4 4 3 1 1 2 2 3 3 3 3 3 3 3 3 3 2 3 4 3 1 1 0 0 0 0 2 4 4 3 4 5 5 5 5
Wind_Direction
332 330 330 333 334 334 336 335 336 338 338 353 343 307 5 61 150 298 129 169 37 64 48 293 35 186 236 297 297 262 291 217 260 330 304 328 214 306 205 224 198 246 205 311 273 331 302 273 256 228 171 161 281 283 315 145 61 87 334 29 256 99 66 41 299 315 299 308 290 337 61 85 30 16 47 65 180 177 168 174 179 139 180 74 12 126 247
332 331 331 334 335 335 335 335 335 335 336 327 314 25 117 120 119 44 28 69 88 76 245 316 293 287 316 37 272 261 232 296 331 279 296 165 333 277 285 328 166 271 360 261 256 341 69 14 40 343 71 65 315 357 231 122 150 89 238 145 258 103 290 114 44 5 338 344 346 5 339 54 81 348 318 341 345 64 146 108 61 99 207 166 126 213 263
332 332 333 335 337 335 335 335 332 327 323 308 220 223 163 104 360 53 311 6 103 246 190 157 167 296 28 326 354 343 342 242 241 245 280 324 211 2 278 225 301 298 342 299 329 312 180 165 7 106 351 314 317 9 16 239 118 221 213 98 121 89 185 124 148 164 180 212 258 255 289 275 284 48 356 7 43 68 83 129 92 140 224 126 135 197 254
334 334 334 337 337 337 336 336 330 321 324 265 171 203 59 115 125 308 357 3 39 75 56 111 141 129 9 24 297 66 320 318 297 164 269 215 298 184 277 314 24 320 15 18 2 347 356 92 278 39 341 321 358 352 344 45 104 94 66 42 75 114 61 74 149 161 190 201 222 262 253 351 39 311 16 345 342 337 101 96 106 189 177 108 223 166 153
336 336 336 338 339 338 338 338 333 332 333 189 156 99 105 148 98 149 182 344 40 135 358 82 68 266 151 97 308 335 303 259 320 272 49 343 8 304 82 342 10 329 29 326 351 339 333 7 65 19 336 286 352 296 24 43 26 53 61 15 83 72 68 28 87 72 161 226 231 263 246 112 43 26 340 345 356 341 80 122 218 163 117 239 243 193 135
337 337 337 339 339 339 339 341 339 348 356 163 180 61 12 81 239 118 180 127 260 44 335 68 98 41 118 269 39 296 350 1 25 326 18 308 351 47 324 30 33 287 275 333 49 342 354 25 39 343 8 354 331 295 9 61 352 41 49 15 100 118 114 253 54 52 32 40 30 28 93 90 106 65 27 13 351 15 57 154 124 111 121 186 169 154 124
338 338 339 340 340 338 341 345 350 356 59 154 5 90 296 123 128 159 339 118 251 149 216 109 108 72 56 160 36 338 16 6 269 185 316 16 347 40 9 325 338 333 339 135 106 32 65 350 347 43 323 35 258 350 334 30 24 48 49 26 94 94 51 167 92 96 33 14 17 17 92 120 58 36 31 22 20 33 42 55 3 90 132 132 132 104 74
338 339 341 340 340 340 342 349 354 359 196 140 33 37 125 208 118 187 15 90 104 6 48 95 60 75 324 28 306 148 323 348 339 336 103 3 316 27 33 309 331 345 355 51 80 348 142 131 337 314 25 319 41 11 96 288 341 42 50 69 338 98 245 102 92 60 355 353 356 26 35 87 73 26 28 24 18 47 33 53 45 62 70 93 98 93 83
339 343 342 341 340 341 344 351 356 11 152 355 158 359 90 180 164 150 116 60 320 352 28 50 94 67 345 58 293 18 278 281 250 270 201 149 264 335 301 306 334 24 34 42 95 222 231 183 201 232 250 270 286 53 276 12 345 2 13 33 341 69 130 37 93 75 323 359 353 343 29 80 90 43 15 8 14 40 355 16 328 307 148 122 104 96 126
343 343 342 341 340 341 344 350 357 3 255 167 128 68 300 89 34 86 105 87 333 36 345 22 58 15 226 180 256 171 281 302 301 344 291 226 232 266 302 322 32 308 21 338 312 299 234 238 230 194 220 228 274 296 265 305 294 330 83 360 74 109 128 127 106 107 256 307 327 325 342 33 360 16 334 327 309 257 16 2 353 353 144 133 154 169 118
342 342 341 341 341 342 345 349 356 2 20 115 106 93 31 126 157 36 47 96 341 51 56 9 95 231 320 292 292 336 303 331 347 125 276 15 331 309 318 13 11 285 238 276 325 246 256 243 240 204 132 175 250 293 289 283 234 211 168 76 39 81 116 119 117 112 200 331 315 322 69 189 232 319 297 264 283 322 70 23 4 38 55 77 61 106 119
343 343 342 341 342 343 344 347 354 4 25 296 133 141 223 111 74 88 92 92 180 351 98 118 202 304 38 312 230 250 312 334 305 191 214 264 274 335 81 84 113 326 247 271 333 319 227 32 65 68 86 177 94 61 49 25 349 347 182 135 130 129 101 121 137 104 144 275 3 70 180 242 253 256 19 12 61 84 85 62 46 73 103 97 91 89 89
344 344 344 343 342 342 343 345 351 1 19 155 174 64 282 96 113 121 118 111 160 338 54 132 360 258 275 304 360 275 275 261 267 258 271 260 306 334 259 198 202 243 335 326 343 11 82 35 40 83 42 14 28 37 48 25 339 332 46 115 132 148 126 159 53 102 64 48 42 137 232 269 317 66 312 274 224 347 57 62 39 40 70 111 106 112 109
347 347 346 344 342 342 342 344 348 357 14 137 132 225 230 144 105 80 109 99 360 262 180 327 350 353 354 336 353 296 342 354 332 147 222 221 224 259 290 220 227 283 314 336 27 76 50 26 76 64 357 11 8 36 45 63 284 353 25 9 87 140 103 107 90 341 139 144 78 117 302 161 94 12 14 11 351 352 57 99 16 14 354 77 121 117 112
348 348 346 344 343 341 342 343 347 352 6 74 143 6 18 161 125 124 164 90 137 60 64 91 290 272 306 309 24 9 10 320 15 281 244 286 256 223 233 263 301 311 325 161 330 40 155 108 73 111 3 53 117 218 350 91 301 330 35 58 70 79 137 204 105 269 122 135 90 92 21 199 167 116 4 242 265 266 246 109 71 34 68 90 123 124 122
349 348 346 344 344 342 342 344 345 346 356 14 113 111 42 84 96 91 108 133 122 53 324 229 209 198 216 295 24 45 336 322 318 301 337 335 272 320 291 284 301 352 49 69 78 95 69 126 183 87 153 196 234 71 261 356 357 293 24 39 64 44 71 111 112 141 80 80 120 157 174 359 58 323 319 292 281 222 203 63 63 356 120 119 117 111 118
350 349 347 346 346 343 343 343 344 345 354 2 81 95 59 68 175 133 100 50 72 160 236 190 137 108 82 351 7 18 31 360 310 13 335 324 304 275 296 325 299 44 28 81 11 57 40 50 82 130 24 242 54 195 92 63 360 330 335 8 38 41 9 22 62 60 62 136 93 159 202 154 346 307 307 308 298 138 84 70 254 141 139 135 127 127 133
351 351 349 348 347 344 342 343 345 347 354 359 84 88 9 10 119 103 61 94 112 14 298 175 90 47 48 183 201 253 78 22 29 72 190 272 330 335 323 353 345 320 84 88 27 70 59 78 85 100 95 303 188 55 75 35 25 326 334 14 8 4 354 44 129 121 63 76 92 27 349 322 342 318 315 310 262 147 84 186 215 145 127 133 134 133 135
353 352 352 350 347 344 343 345 346 348 354 4 84 39 28 358 5 93 114 85 81 118 265 257 218 140 180 93 108 134 168 115 147 80 319 2 9 258 259 258 49 339 5 105 61 70 92 360 23 96 123 309 28 97 308 39 315 329 9 19 15 20 57 340 59 38 57 110 101 172 190 272 337 317 309 282 332 83 222 238 155 136 128 134 141 133 112
353 353 353 351 347 345 345 346 347 350 357 0 49 122 220 344 2 67 114 113 104 111 292 17 52 57 219 78 39 29 11 15 44 110 127 276 278 10 33 6 321 56 350 62 48 263 93 40 257 136 38 85 20 149 66 78 45 54 340 360 106 310 74 360 46 310 32 27 70 45 62 221 21 327 322 357 109 252 310 122 113 132 130 133 115 105 119
354 354 353 350 347 346 346 347 348 352 356 359 46 90 19 346 22 24 87 125 109 84 353 290 180 241 135 79 171 137 129 73 8 9 256 207 238 82 80 210 267 13 351 68 99 350 98 2 344 72 213 102 296 43 154 195 33 13 83 90 87 334 100 14 64 206 118 47 66 91 286 305 325 326 103 327 328 312 350 141 126 115 124 123 107 89 110
353 354 352 350 348 347 347 348 350 354 358 357 33 80 62 312 20 15 55 89 99 120 175 224 83 245 222 210 175 169 147 216 244 188 233 320 346 98 158 133 264 134 282 117 33 28 16 147 18 48 17 1 29 66 181 71 42 303 346 62 47 342 97 166 108 343 98 107 83 7 329 318 325 354 33 37 33 56 65 57 77 109 72 84 105 108 101
353 354 352 350 349 348 348 349 352 355 360 0 29 86 110 329 339 346 66 62 9 50 9 12 357 339 345 309 210 200 211 173 115 84 138 112 345 14 70 42 336 234 34 102 150 120 149 109 105 156 75 20 113 74 44 92 127 345 48 355 129 176 111 139 81 87 98 72 56 337 4 35 41 39 38 52 47 41 54 65 78 55 70 71 105 108 109
353 354 353 351 350 349 350 351 353 355 359 8 45 115 93 71 324 8 33 65 105 95 6 13 63 344 279 318 335 353 40 4 304 289 175 125 94 322 322 261 193 43 15 290 165 124 173 100 163 141 91 266 89 51 101 47 38 173 64 1 7 341 91 47 89 187 11 60 347 29 40 52 67 68 61 60 57 56 60 64 61 70 75 77 68 91 94
354 353 353 351 350 349 350 353 354 355 358 7 33 56 91 37 16 43 114 109 356 87 132 315 350 243 258 256 259 299 52 340 21 56 56 70 121 127 120 336 163 80 12 30 79 61 43 101 64 59 91 306 104 63 281 112 11 95 75 349 38 33 97 75 60 60 64 101 61 72 68 60 47 61 80 78 75 73 71 76 75 76 73 73 77 84 86
352 350 351 350 349 349 350 353 354 357 360 8 34 83 85 57 305 78 73 72 98 105 96 42 295 316 334 27 27 296 307 27 25 50 43 59 124 143 158 156 32 28 98 89 79 98 107 56 79 96 101 360 69 111 52 314 144 105 103 117 282 271 16 59 302 97 89 94 92 107 83 60 49 62 65 80 88 88 82 76 75 70 70 67 60 63 83
348 349 348 347 348 348 350 350 355 355 2 12 36 57 93 92 360 58 94 156 95 14 38 86 285 304 11 5 304 346 2 5 33 47 40 30 42 43 62 68 86 15 50 31 45 108 65 92 82 50 63 113 91 96 121 32 54 60 39 320 346 52 52 55 83 91 146 159 175 171 106 87 63 75 101 108 105 100 95 95 92 98 98 95 89 61 61
346 346 344 342 346 346 347 349 351 356 359 27 58 57 53 72 1 24 93 114 111 169 156 208 43 296 296 44 357 37 6 25 49 52 45 33 36 41 50 55 65 53 14 62 29 26 31 63 57 225 121 308 60 21 21 133 68 38 36 351 355 111 180 126 139 145 192 234 167 69 104 93 81 126 101 112 128 118 121 120 122 116 122 128 120 115 97
342 342 340 339 342 343 346 344 347 354 355 27 60 52 18 65 339 21 57 105 102 95 91 164 301 21 79 248 316 355 354 44 40 49 48 35 36 35 49 53 68 137 93 71 99 104 85 109 191 67 46 220 100 6 35 19 38 51 304 310 356 281 182 188 182 134 59 100 133 127 117 141 145 78 64 74 103 112 101 92 101 128 133 128 121 131 130
334 334 335 337 338 340 343 342 345 351 357 44 44 48 45 345 340 36 3 49 112 118 97 94 78 224 288 356 334 344 339 1 26 44 42 34 29 28 16 35 32 45 82 97 115 72 306 101 336 322 326 360 109 150 74 208 71 292 306 334 328 343 64 68 133 127 143 174 138 109 97 84 88 108 85 66 45 121 127 137 140 121 101 126 118 121 134
331 331 334 335 335 337 338 340 342 352 21 70 73 54 42 63 316 354 7 33 70 106 129 99 112 276 25 333 52 356 344 353 22 39 35 58 81 24 323 86 37 46 48 8 42 73 81 24 18 345 333 34 89 86 152 106 69 8 343 354 329 12 82 69 78 89 93 87 93 91 85 85 133 91 52 58 90 113 106 90 85 128 144 133 140 147 153
326 329 330 332 332 333 333 334 340 358 43 86 105 160 178 190 232 304 337 2 73 58 79 70 360 17 290 321 326 309 18 25 31 16 7 19 10 3 22 54 60 6 95 98 166 61 29 253 79 10 37 338 67 93 69 77 95 138 345 2 334 360 99 109 101 106 112 123 106 79 81 74 112 142 181 205 163 70 113 135 140 113 104 113 102 75 83
322 325 328 328 328 328 326 325 329 10 360 241 225 223 248 252 269 284 326 346 51 78 113 83 128 209 75 251 318 343 7 19 15 24 17 355 13 9 32 2 13 37 14 75 5 80 229 101 311 55 327 17 74 79 81 65 94 283 289 325 351 10 87 91 118 123 127 119 114 137 173 193 226 272 76 101 100 122 137 132 132 107 105 102 101 101 80
321 322 324 324 322 323 323 321 351 81 24 40 39 5 339 360 5 2 37 79 101 137 75 107 66 40 287 314 75 299 16 82 313 25 54 345 107 66 349 24 360 74 342 66 288 56 342 63 42 300 333 16 31 73 45 347 292 5 27 15 7 37 74 66 56 52 1 345 351 95 137 131 110 101 89 99 88 60 71 85 119 113 110 129 145 117 130
319 320 319 319 318 317 320 357 44 50 93 16 223 255 279 339 76 9 46 95 81 353 35 12 107 85 13 3 38 279 319 76 19 335 95 316 22 57 360 57 329 68 319 78 45 57 42 353 193 63 317 306 46 46 247 230 27 64 87 95 48 108 73 75 24 352 349 356 45 88 110 126 108 129 164 131 79 74 108 102 113 131 132 190 185 155 134
316 316 315 313 314 326 345 31 48 43 27 28 282 296 347 20 55 52 75 80 115 151 89 239 75 131 137 128 67 302 24 63 330 343 27 314 4 23 86 103 56 336 257 70 111 349 54 318 63 44 294 62 65 172 259 209 178 191 214 196 200 159 179 183 162 108 48 51 52 56 87 103 140 168 110 99 80 64 99 118 84 105 156 161 207 189 129
312 313 315 316 347 47 28 210 287 87 176 215 256 308 350 100 319 45 5 32 13 89 135 145 74 204 151 194 246 276 61 93 353 26 342 41 157 300 36 39 73 303 36 8 14 37 314 15 98 64 25 103 284 265 261 216 196 181 204 226 225 292 28 93 124 112 76 46 50 29 32 80 72 81 112 135 122 105 122 165 170 152 163 193 201 194 205
311 322 19 44 44 51 38 331 332 295 302 311 347 15 357 29 91 339 357 31 303 55 1 64 88 169 18 82 71 259 75 307 33 102 355 239 58 353 9 83 247 77 55 297 316 180 360 37 44 101 328 257 270 266 282 246 232 224 232 239 224 222 234 161 138 98 87 68 37 310 68 54 58 249 178 206 189 189 211 230 213 234 193 178 187 173 133
81 62 40 39 95 149 178 213 303 321 310 206 45 72 332 360 62 19 317 282 14 26 309 94 153 162 94 67 7 295 106 138 42 34 98 294 103 336 32 83 308 70 347 42 293 47 45 350 360 34 20 313 14 346 338 324 332 282 251 241 224 197 165 199 200 150 163 179 190 190 171 178 199 232 226 231 259 233 206 184 239 268 241 176 130 133 132
38 66 126 56 92 217 263 290 333 348 67 64 333 107 126 333 93 181 303 60 360 304 35 52 185 167 175 155 157 38 329 48 84 106 138 328 351 119 257 94 272 87 40 88 270 24 112 111 303 59 306 306 306 291 352 322 315 307 283 292 249 194 196 180 205 289 107 65 106 115 39 22 172 166 187 206 208 222 243 204 213 210 174 172 152 163 181
18 71 42 103 236 299 290 299 342 50 65 45 9 9 66 23 356 180 71 52 84 211 235 143 22 55 18 71 81 117 295 95 143 131 109 84 253 86 47 72 225 81 337 11 296 64 69 75 18 138 210 243 242 300 341 352 342 309 336 5 26 171 176 182 202 215 113 93 103 88 92 102 218 190 187 183 187 202 208 194 187 193 156 144 178 210 167
191 161 200 105 294 285 332 15 58 57 19 79 113 302 265 228 296 16 93 125 225 209 350 82 66 114 72 82 167 122 54 193 122 98 99 79 323 108 161 339 8 102 165 232 103 59 75 96 343 283 258 258 266 301 339 324 315 340 355 347 358 162 179 179 194 233 180 153 161 159 162 158 184 193 185 168 190 198 190 166 177 186 191 204 165 145 156
237 169 121 54 35 5 53 61 326 99 113 19 45 44 345 89 159 146 238 298 298 95 240 56 150 165 350 56 31 71 167 243 27 352 69 107 299 56 77 24 52 73 173 329 65 53 54 156 215 241 247 240 246 287 277 248 277 303 305 328 336 341 182 184 180 177 195 182 166 157 158 153 198 209 186 165 143 134 193 197 193 192 195 187 194 185 179
124 127 34 358 70 299 71 131 281 55 3 47 103 168 243 51 296 29 75 213 218 78 180 135 198 116 130 330 137 334 8 13 54 81 57 314 78 15 46 40 24 251 317 41 40 87 197 223 205 214 228 260 290 252 264 292 308 309 360 355 356 38 78 80 83 92 60 50 82 113 132 170 188 153 154 180 170 193 207 204 214 184 182 162 189 197 166
90 11 35 27 36 275 72 289 338 116 189 243 136 173 155 168 218 171 168 234 96 184 143 84 112 89 102 289 42 7 89 167 309 95 243 58 53 11 102 218 249 29 74 181 348 330 340 229 272 255 230 180 225 266 263 261 254 245 287 360 14 22 64 86 75 89 81 90 157 137 149 47 19 254 217 217 225 200 169 199 194 164 174 183 194 173 180
86 157 94 87 6 318 102 172 10 27 286 151 194 192 167 220 161 194 241 114 104 111 122 139 94 92 65 288 121 186 346 79 56 35 102 67 98 34 242 196 73 69 25 44 58 202 211 234 245 225 209 212 225 247 270 250 262 303 359 108 304 17 22 142 145 130 170 187 214 168 237 359 190 256 266 267 254 244 228 217 181 176 158 152 193 208 194
83 20 88 114 106 267 83 130 231 207 185 209 221 179 183 177 195 167 156 117 124 154 106 114 104 156 123 360 32 3 34 47 90 291 71 54 99 263 13 104 197 65 123 180 254 252 269 256 239 227 220 225 249 273 291 303 320 248 233 180 218 263 358 136 175 165 215 144 180 220 237 221 216 213 220 297 279 234 231 206 201 178 169 200 210 184 172
102 243 96 100 207 169 145 236 202 96 359 241 258 212 237 173 100 61 349 87 145 119 112 100 86 24 38 318 83 128 253 343 89 316 117 157 39 42 9 40 360 248 180 158 222 222 228 248 217 208 215 203 191 233 271 263 239 230 216 199 228 255 264 247 254 259 235 175 205 248 255 265 247 208 192 212 243 267 214 201 196 193 205 218 169 167 184
133 117 138 178 187 141 180 267 93 70 317 334 28 77 101 93 96 114 148 59 88 98 150 113 164 91 78 302 83 45 40 350 90 250 11 36 88 188 142 186 27 22 253 175 210 212 220 227 217 187 184 193 207 203 237 233 219 229 226 232 237 237 233 239 242 249 241 233 216 199 221 229 222 322 336 77 225 270 287 192 181 190 200 199 198 190 190
69 355 37 75 54 15 294 36 72 66 341 7 44 79 43 101 103 72 192 78 71 102 41 54 55 89 224 91 22 9 359 310 134 46 63 60 184 170 73 55 234 177 220 222 226 243 229 217 161 159 195 206 223 213 235 269 230 226 244 237 254 247 235 229 250 257 251 239 230 224 234 239 212 188 189 224 232 253 308 239 207 200 206 206 196 192 200
345 104 205 175 141 196 152 143 160 160 155 156 144 178 148 130 145 130 340 118 96 56 46 111 196 94 57 30 54 59 239 162 54 68 157 189 187 105 142 175 239 210 229 231 212 224 208 177 165 162 189 223 233 228 223 226 230 239 255 270 269 268 273 250 243 253 258 254 249 261 248 234 239 239 249 219 234 277 287 278 229 204 203 203 201 200 204
59 74 115 308 12 107 127 108 63 96 144 167 143 216 127 86 229 212 258 89 57 89 163 229 87 64 67 135 215 186 34 47 48 52 45 278 150 132 209 196 216 212 210 199 215 208 199 198 196 174 179 196 221 234 233 235 279 288 274 262 264 274 279 276 258 251 258 278 251 222 250 262 282 279 216 118 83 267 265 274 269 223 205 205 210 211 211